Time,TemperatureF,DewpointF,PressureIn,WindDirection,WindDirectionDegrees,WindSpeedMPH,WindSpeedGustMPH,Humidity,HourlyPrecipIn,Conditions,Clouds,dailyrainin,SoftwareType,DateUTC
2013-04-21 00:05:00,46.8,16.2,30.52,SE,129,0.0,0.0,29,0.00,,,0.00,Wunderground v.1.15,2013-04-21 07:05:00,
2013-04-21 00:10:00,45.7,15.2,30.52,SE,128,0.0,0.0,29,0.00,,,0.00,Wunderground v.1.15,2013-04-21 07:10:00,
2013-04-21 00:20:00,43.6,15.6,30.52,SE,125,0.0,0.0,32,0.00,,,0.00,Wunderground v.1.15,2013-04-21 07:20:00,
2013-04-21 00:25:00,43.6,16.3,30.52,NNE,12,0.0,0.0,33,0.00,,,0.00,Wunderground v.1.15,2013-04-21 07:25:00,
2013-04-21 00:35:00,45.2,17.8,30.52,NNE,16,1.0,2.0,33,0.00,,,0.00,Wunderground v.1.15,2013-04-21 07:35:00,
2013-04-21 00:40:00,45.6,17.4,30.51,NE,34,2.0,3.0,32,0.00,,,0.00,Wunderground v.1.15,2013-04-21 07:40:00,
2013-04-21 00:50:00,44.7,15.9,30.52,NNW,344,2.0,2.0,31,0.00,,,0.00,Wunderground v.1.15,2013-04-21 07:50:00,
2013-04-21 00:55:00,43.5,16.3,30.51,NNW,344,1.0,2.0,33,0.00,,,0.00,Wunderground v.1.15,2013-04-21 07:55:00,
2013-04-21 01:05:00,42.8,17.0,30.52,North,10,1.0,2.0,35,0.00,,,0.00,Wunderground v.1.15,2013-04-21 08:05:00,
2013-04-21 01:10:00,43.5,16.9,30.52,NNE,27,2.0,2.0,34,0.00,,,0.00,Wunderground v.1.15,2013-04-21 08:10:00,
2013-04-21 01:20:00,44.4,17.1,30.51,NNE,20,4.0,4.0,33,0.00,,,0.00,Wunderground v.1.15,2013-04-21 08:20:00,
2013-04-21 01:25:00,44.4,17.1,30.51,NNE,29,4.0,4.0,33,0.00,,,0.00,Wunderground v.1.15,2013-04-21 08:25:00,
2013-04-21 01:35:00,43.8,16.5,30.51,NNE,14,3.0,4.0,33,0.00,,,0.00,Wunderground v.1.15,2013-04-21 08:35:00,
2013-04-21 01:40:00,43.1,15.9,30.51,WNW,288,3.0,3.0,33,0.00,,,0.00,Wunderground v.1.15,2013-04-21 08:40:00,
2013-04-21 01:50:00,42.2,16.5,30.51,NNE,18,3.0,4.0,35,0.00,,,0.00,Wunderground v.1.15,2013-04-21 08:50:00,
2013-04-21 01:55:00,42.7,17.6,30.50,NNW,343,3.0,4.0,36,0.00,,,0.00,Wunderground v.1.15,2013-04-21 08:55:00,
2013-04-21 02:05:00,43.9,18.0,30.50,NNE,20,3.0,3.0,35,0.00,,,0.00,Wunderground v.1.15,2013-04-21 09:05:00,
2013-04-21 02:10:00,44.5,18.5,30.50,NNE,19,3.0,3.0,35,0.00,,,0.00,Wunderground v.1.15,2013-04-21 09:10:00,
2013-04-21 02:20:00,43.7,17.1,30.50,NNW,327,4.0,4.0,34,0.00,,,0.00,Wunderground v.1.15,2013-04-21 09:20:00,
2013-04-21 02:25:00,43.1,16.6,30.50,NNW,346,4.0,4.0,34,0.00,,,0.00,Wunderground v.1.15,2013-04-21 09:25:00,
2013-04-21 02:35:00,42.4,16.6,30.50,NNE,23,4.0,6.0,35,0.00,,,0.00,Wunderground v.1.15,2013-04-21 09:35:00,
2013-04-21 02:40:00,42.2,17.1,30.50,NNE,22,4.0,4.0,36,0.00,,,0.00,Wunderground v.1.15,2013-04-21 09:40:00,
2013-04-21 02:50:00,42.6,16.8,30.50,NNE,32,4.0,4.0,35,0.00,,,0.00,Wunderground v.1.15,2013-04-21 09:50:00,
2013-04-21 02:55:00,42.8,17.0,30.50,NNE,22,4.0,4.0,35,0.00,,,0.00,Wunderground v.1.15,2013-04-21 09:55:00,
2013-04-21 03:05:00,42.7,16.9,30.50,NNE,14,4.0,4.0,35,0.00,,,0.00,Wunderground v.1.15,2013-04-21 10:05:00,
2013-04-21 03:10:00,42.4,17.3,30.50,NNW,345,4.0,4.0,36,0.00,,,0.00,Wunderground v.1.15,2013-04-21 10:10:00,
2013-04-21 03:20:00,42.1,16.4,30.50,WNW,297,1.0,1.0,35,0.00,,,0.00,Wunderground v.1.15,2013-04-21 10:20:00,
2013-04-21 03:25:00,40.7,16.4,30.50,NNW,338,0.0,1.0,37,0.00,,,0.00,Wunderground v.1.15,2013-04-21 10:25:00,
2013-04-21 03:35:00,39.1,16.8,30.50,NNE,18,1.0,2.0,40,0.00,,,0.00,Wunderground v.1.15,2013-04-21 10:35:00,
2013-04-21 03:40:00,40.0,17.6,30.50,NNW,339,1.0,1.0,40,0.00,,,0.00,Wunderground v.1.15,2013-04-21 10:40:00,
2013-04-21 03:50:00,39.9,16.9,30.50,North,8,2.0,2.0,39,0.00,,,0.00,Wunderground v.1.15,2013-04-21 10:50:00,
2013-04-21 03:55:00,39.8,16.8,30.50,North,359,2.0,3.0,39,0.00,,,0.00,Wunderground v.1.15,2013-04-21 10:55:00,
2013-04-21 04:05:00,39.7,16.7,30.50,NW,307,2.0,2.0,39,0.00,,,0.00,Wunderground v.1.15,2013-04-21 11:05:00,
2013-04-21 04:10:00,39.5,16.6,30.50,NNW,339,2.0,4.0,39,0.00,,,0.00,Wunderground v.1.15,2013-04-21 11:10:00,
2013-04-21 04:20:00,38.8,16.5,30.50,North,1,3.0,3.0,40,0.00,,,0.00,Wunderground v.1.15,2013-04-21 11:20:00,
2013-04-21 04:25:00,38.4,16.1,30.51,NW,310,2.0,3.0,40,0.00,,,0.00,Wunderground v.1.15,2013-04-21 11:25:00,
2013-04-21 04:35:00,37.4,16.9,30.51,NNE,25,2.0,2.0,43,0.00,,,0.00,Wunderground v.1.15,2013-04-21 11:35:00,
2013-04-21 04:40:00,38.4,17.3,30.51,NNW,335,1.0,1.0,42,0.00,,,0.00,Wunderground v.1.15,2013-04-21 11:40:00,
2013-04-21 04:50:00,40.5,17.5,30.51,North,352,1.0,1.0,39,0.00,,,0.00,Wunderground v.1.15,2013-04-21 11:50:00,
2013-04-21 04:55:00,40.8,17.7,30.52,North,352,1.0,1.0,39,0.00,,,0.00,Wunderground v.1.15,2013-04-21 11:55:00,
2013-04-21 05:05:00,40.7,17.6,30.52,NNE,20,1.0,1.0,39,0.00,,,0.00,Wunderground v.1.15,2013-04-21 12:05:00,
2013-04-21 05:10:00,41.1,18.0,30.51,NW,323,2.0,2.0,39,0.00,,,0.00,Wunderground v.1.15,2013-04-21 12:10:00,
2013-04-21 05:20:00,40.1,16.5,30.52,West,281,0.0,0.0,38,0.00,,,0.00,Wunderground v.1.15,2013-04-21 12:20:00,
2013-04-21 05:25:00,38.3,16.1,30.52,WNW,284,0.0,0.0,40,0.00,,,0.00,Wunderground v.1.15,2013-04-21 12:25:00,
2013-04-21 05:35:00,36.3,16.4,30.52,NNW,348,1.0,1.0,44,0.00,,,0.00,Wunderground v.1.15,2013-04-21 12:35:00,
2013-04-21 05:40:00,35.6,15.8,30.53,NNW,348,0.0,0.0,44,0.00,,,0.00,Wunderground v.1.15,2013-04-21 12:40:00,
2013-04-21 05:50:00,34.3,16.1,30.53,NNW,345,0.0,0.0,47,0.00,,,0.00,Wunderground v.1.15,2013-04-21 12:50:00,
2013-04-21 05:55:00,33.7,15.6,30.53,NNW,345,0.0,0.0,47,0.00,,,0.00,Wunderground v.1.15,2013-04-21 12:55:00,
2013-04-21 06:05:00,32.9,15.8,30.53,NNW,345,0.0,0.0,49,0.00,,,0.00,Wunderground v.1.15,2013-04-21 13:05:00,
2013-04-21 06:10:00,32.8,16.2,30.53,NNW,335,0.0,0.0,50,0.00,,,0.00,Wunderground v.1.15,2013-04-21 13:10:00,
2013-04-21 06:20:00,34.0,16.3,30.54,NNW,334,0.0,0.0,48,0.00,,,0.00,Wunderground v.1.15,2013-04-21 13:20:00,
2013-04-21 06:25:00,34.1,15.9,30.54,NNW,335,0.0,0.0,47,0.00,,,0.00,Wunderground v.1.15,2013-04-21 13:25:00,
2013-04-21 06:35:00,34.4,16.2,30.55,NW,318,0.0,0.0,47,0.00,,,0.00,Wunderground v.1.15,2013-04-21 13:35:00,
2013-04-21 06:40:00,35.3,16.6,30.55,NW,316,1.0,1.0,46,0.00,,,0.00,Wunderground v.1.15,2013-04-21 13:40:00,
2013-04-21 06:50:00,38.1,18.1,30.55,NE,51,2.0,3.0,44,0.00,,,0.00,Wunderground v.1.15,2013-04-21 13:50:00,
2013-04-21 06:55:00,39.5,18.3,30.55,North,349,3.0,3.0,42,0.00,,,0.00,Wunderground v.1.15,2013-04-21 13:55:00,
2013-04-21 07:05:00,41.2,18.7,30.55,NNE,15,3.0,5.0,40,0.00,,,0.00,Wunderground v.1.15,2013-04-21 14:05:00,
2013-04-21 07:10:00,42.1,19.5,30.55,NW,314,3.0,3.0,40,0.00,,,0.00,Wunderground v.1.15,2013-04-21 14:10:00,
2013-04-21 07:20:00,44.2,20.2,30.56,NNW,333,3.0,3.0,38,0.00,,,0.00,Wunderground v.1.15,2013-04-21 14:20:00,
2013-04-21 07:25:00,45.1,20.3,30.56,North,356,3.0,3.0,37,0.00,,,0.00,Wunderground v.1.15,2013-04-21 14:25:00,
2013-04-21 07:35:00,46.7,21.1,30.55,NW,315,2.0,2.0,36,0.00,,,0.00,Wunderground v.1.15,2013-04-21 14:35:00,
2013-04-21 07:40:00,47.6,21.3,30.56,NW,309,1.0,2.0,35,0.00,,,0.00,Wunderground v.1.15,2013-04-21 14:40:00,
2013-04-21 07:50:00,49.0,21.1,30.56,North,354,2.0,2.0,33,0.00,,,0.00,Wunderground v.1.15,2013-04-21 14:50:00,
2013-04-21 07:55:00,49.8,21.8,30.56,NW,306,2.0,2.0,33,0.00,,,0.00,Wunderground v.1.15,2013-04-21 14:55:00,
2013-04-21 08:05:00,51.7,22.8,30.55,NW,321,1.0,1.0,32,0.00,,,0.00,Wunderground v.1.15,2013-04-21 15:05:00,
2013-04-21 08:10:00,52.7,22.1,30.55,North,349,1.0,1.0,30,0.00,,,0.00,Wunderground v.1.15,2013-04-21 15:10:00,
2013-04-21 08:20:00,54.4,22.8,30.55,North,356,1.0,1.0,29,0.00,,,0.00,Wunderground v.1.15,2013-04-21 15:20:00,
2013-04-21 08:25:00,55.1,22.5,30.55,NW,318,1.0,1.0,28,0.00,,,0.00,Wunderground v.1.15,2013-04-21 15:25:00,
2013-04-21 08:35:00,56.9,22.3,30.55,North,353,0.0,1.0,26,0.00,,,0.00,Wunderground v.1.15,2013-04-21 15:35:00,
2013-04-21 08:40:00,58.0,22.3,30.55,WNW,303,0.0,0.0,25,0.00,,,0.00,Wunderground v.1.15,2013-04-21 15:40:00,
2013-04-21 08:50:00,60.5,22.5,30.55,WSW,254,0.0,0.0,23,0.00,,,0.00,Wunderground v.1.15,2013-04-21 15:50:00,
2013-04-21 08:55:00,61.0,21.8,30.55,SSE,152,0.0,0.0,22,0.00,,,0.00,Wunderground v.1.15,2013-04-21 15:55:00,
2013-04-21 09:05:00,61.6,22.3,30.55,WNW,285,1.0,1.0,22,0.00,,,0.00,Wunderground v.1.15,2013-04-21 16:05:00,
2013-04-21 09:10:00,62.7,23.3,30.55,SSW,198,1.0,1.0,22,0.00,,,0.00,Wunderground v.1.15,2013-04-21 16:10:00,
2013-04-21 09:20:00,64.1,22.2,30.54,SE,138,2.0,2.0,20,0.00,,,0.00,Wunderground v.1.15,2013-04-21 16:20:00,
2013-04-21 09:25:00,65.1,21.8,30.54,SE,127,2.0,4.0,19,0.00,,,0.00,Wunderground v.1.15,2013-04-21 16:25:00,
2013-04-21 09:35:00,65.8,21.1,30.54,East,82,2.0,4.0,18,0.00,,,0.00,Wunderground v.1.15,2013-04-21 16:35:00,
2013-04-21 09:40:00,66.5,20.3,30.54,South,169,2.0,2.0,17,0.00,,,0.00,Wunderground v.1.15,2013-04-21 16:40:00,
2013-04-21 09:50:00,67.5,19.7,30.54,South,174,3.0,3.0,16,0.00,,,0.00,Wunderground v.1.15,2013-04-21 16:50:00,
2013-04-21 09:55:00,66.8,19.1,30.54,NW,309,3.0,3.0,16,0.00,,,0.00,Wunderground v.1.15,2013-04-21 16:55:00,
2013-04-21 10:00:00,66.4,21.6,30.54,SE,135,3.0,3.0,18,0.00,,,0.00,Wunderground v.1.15,2013-04-21 17:00:00,
2013-04-21 10:10:00,66.9,19.2,30.53,SSW,210,3.0,6.0,16,0.00,,,0.00,Wunderground v.1.15,2013-04-21 17:10:00,
2013-04-21 10:20:00,67.9,18.5,30.53,SSE,158,3.0,3.0,15,0.00,,,0.00,Wunderground v.1.15,2013-04-21 17:20:00,
2013-04-21 10:25:00,68.8,17.6,30.53,South,170,2.0,3.0,14,0.00,,,0.00,Wunderground v.1.15,2013-04-21 17:25:00,
2013-04-21 10:35:00,68.8,17.6,30.53,West,259,3.0,3.0,14,0.00,,,0.00,Wunderground v.1.15,2013-04-21 17:35:00,
2013-04-21 10:40:00,69.0,17.8,30.53,SSE,167,2.0,3.0,14,0.00,,,0.00,Wunderground v.1.15,2013-04-21 17:40:00,
2013-04-21 10:50:00,69.6,18.2,30.52,West,259,3.0,3.0,14,0.00,,,0.00,Wunderground v.1.15,2013-04-21 17:50:00,
2013-04-21 10:55:00,69.5,18.2,30.53,WNW,284,3.0,3.0,14,0.00,,,0.00,Wunderground v.1.15,2013-04-21 17:55:00,
2013-04-21 11:05:00,69.0,17.8,30.52,WNW,290,3.0,6.0,14,0.00,,,0.00,Wunderground v.1.15,2013-04-21 18:05:00,
2013-04-21 11:10:00,69.7,18.3,30.52,West,264,3.0,5.0,14,0.00,,,0.00,Wunderground v.1.15,2013-04-21 18:10:00,
2013-04-21 11:20:00,69.7,18.3,30.51,West,266,3.0,3.0,14,0.00,,,0.00,Wunderground v.1.15,2013-04-21 18:20:00,
2013-04-21 11:25:00,70.2,17.0,30.52,NNE,16,3.0,3.0,13,0.00,,,0.00,Wunderground v.1.15,2013-04-21 18:25:00,
2013-04-21 11:35:00,70.5,19.0,30.51,SW,229,2.0,3.0,14,0.00,,,0.00,Wunderground v.1.15,2013-04-21 18:35:00,
2013-04-21 11:40:00,71.6,18.1,30.50,SSE,163,2.0,2.0,13,0.00,,,0.00,Wunderground v.1.15,2013-04-21 18:40:00,
2013-04-21 11:50:00,72.2,16.7,30.50,WNW,292,4.0,4.0,12,0.00,,,0.00,Wunderground v.1.15,2013-04-21 18:50:00,
2013-04-21 11:55:00,72.2,16.7,30.50,West,266,4.0,4.0,12,0.00,,,0.00,Wunderground v.1.15,2013-04-21 18:55:00,
2013-04-21 12:05:00,72.7,19.0,30.50,WNW,285,4.0,5.0,13,0.00,,,0.00,Wunderground v.1.15,2013-04-21 19:05:00,
2013-04-21 12:10:00,73.4,15.6,30.50,West,270,5.0,5.0,11,0.00,,,0.00,Wunderground v.1.15,2013-04-21 19:10:00,
2013-04-21 12:20:00,72.6,15.0,30.49,SSE,148,4.0,4.0,11,0.00,,,0.00,Wunderground v.1.15,2013-04-21 19:20:00,
2013-04-21 12:25:00,73.2,15.5,30.49,WNW,302,3.0,5.0,11,0.00,,,0.00,Wunderground v.1.15,2013-04-21 19:25:00,
2013-04-21 12:35:00,72.9,15.3,30.49,NNE,26,4.0,4.0,11,0.00,,,0.00,Wunderground v.1.15,2013-04-21 19:35:00,
2013-04-21 12:40:00,72.9,15.3,30.48,North,356,3.0,3.0,11,0.00,,,0.00,Wunderground v.1.15,2013-04-21 19:40:00,
2013-04-21 12:50:00,73.3,17.6,30.47,WNW,288,4.0,7.0,12,0.00,,,0.00,Wunderground v.1.15,2013-04-21 19:50:00,
2013-04-21 12:55:00,75.1,17.0,30.48,WNW,293,5.0,7.0,11,0.00,,,0.00,Wunderground v.1.15,2013-04-21 19:55:00,
2013-04-21 13:05:00,74.4,16.4,30.47,NW,309,4.0,5.0,11,0.00,,,0.00,Wunderground v.1.15,2013-04-21 20:05:00,
2013-04-21 13:10:00,75.3,17.1,30.47,WNW,290,5.0,5.0,11,0.00,,,0.00,Wunderground v.1.15,2013-04-21 20:10:00,
2013-04-21 13:20:00,75.8,15.3,30.46,WNW,285,5.0,5.0,10,0.00,,,0.00,Wunderground v.1.15,2013-04-21 20:20:00,
2013-04-21 13:25:00,74.9,16.8,30.46,NW,321,5.0,6.0,11,0.00,,,0.00,Wunderground v.1.15,2013-04-21 20:25:00,
2013-04-21 13:35:00,75.3,14.9,30.46,NW,323,6.0,10.0,10,0.00,,,0.00,Wunderground v.1.15,2013-04-21 20:35:00,
2013-04-21 13:40:00,75.5,15.1,30.45,West,281,6.0,8.0,10,0.00,,,0.00,Wunderground v.1.15,2013-04-21 20:40:00,
2013-04-21 13:50:00,76.0,17.6,30.45,West,264,4.0,4.0,11,0.00,,,0.00,Wunderground v.1.15,2013-04-21 20:50:00,
2013-04-21 13:55:00,76.5,13.4,30.44,WNW,291,5.0,5.0,9,0.00,,,0.00,Wunderground v.1.15,2013-04-21 20:55:00,
2013-04-21 14:05:00,77.1,13.9,30.44,SW,226,6.0,6.0,9,0.00,,,0.00,Wunderground v.1.15,2013-04-21 21:05:00,
2013-04-21 14:10:00,76.3,15.7,30.44,NW,322,5.0,5.0,10,0.00,,,0.00,Wunderground v.1.15,2013-04-21 21:10:00,
2013-04-21 14:20:00,77.4,14.1,30.43,WNW,290,3.0,3.0,9,0.00,,,0.00,Wunderground v.1.15,2013-04-21 21:20:00,
2013-04-21 14:25:00,77.9,14.5,30.42,SSW,205,4.0,4.0,9,0.00,,,0.00,Wunderground v.1.15,2013-04-21 21:25:00,
2013-04-21 14:35:00,77.6,14.2,30.42,West,271,6.0,6.0,9,0.00,,,0.00,Wunderground v.1.15,2013-04-21 21:35:00,
2013-04-21 14:40:00,77.8,14.4,30.42,WNW,290,5.0,9.0,9,0.00,,,0.00,Wunderground v.1.15,2013-04-21 21:40:00,
2013-04-21 14:50:00,77.7,14.3,30.42,WNW,295,7.0,7.0,9,0.00,,,0.00,Wunderground v.1.15,2013-04-21 21:50:00,
2013-04-21 14:55:00,77.7,11.6,30.41,WNW,288,7.0,7.0,8,0.00,,,0.00,Wunderground v.1.15,2013-04-21 21:55:00,
2013-04-21 15:05:00,77.9,11.8,30.41,NW,309,6.0,6.0,8,0.00,,,0.00,Wunderground v.1.15,2013-04-21 22:05:00,
2013-04-21 15:10:00,78.3,12.1,30.41,WNW,290,6.0,7.0,8,0.00,,,0.00,Wunderground v.1.15,2013-04-21 22:10:00,
2013-04-21 15:20:00,77.9,8.8,30.40,NW,309,8.0,9.0,7,0.00,,,0.00,Wunderground v.1.15,2013-04-21 22:20:00,
2013-04-21 15:25:00,77.7,8.6,30.40,NW,311,8.0,9.0,7,0.00,,,0.00,Wunderground v.1.15,2013-04-21 22:25:00,
2013-04-21 15:35:00,77.6,8.6,30.40,NW,319,8.0,9.0,7,0.00,,,0.00,Wunderground v.1.15,2013-04-21 22:35:00,
2013-04-21 15:40:00,77.9,8.8,30.40,WNW,296,8.0,8.0,7,0.00,,,0.00,Wunderground v.1.15,2013-04-21 22:40:00,
2013-04-21 15:50:00,77.6,8.6,30.40,West,273,10.0,10.0,7,0.00,,,0.00,Wunderground v.1.15,2013-04-21 22:50:00,
2013-04-21 15:55:00,77.3,8.4,30.40,WNW,302,8.0,10.0,7,0.00,,,0.00,Wunderground v.1.15,2013-04-21 22:55:00,
2013-04-21 16:05:00,77.6,8.6,30.39,WNW,299,7.0,10.0,7,0.00,,,0.00,Wunderground v.1.15,2013-04-21 23:05:00,
2013-04-21 16:10:00,77.6,11.6,30.39,NNW,339,7.0,9.0,8,0.00,,,0.00,Wunderground v.1.15,2013-04-21 23:10:00,
2013-04-21 16:20:00,77.0,11.1,30.39,WNW,303,6.0,6.0,8,0.00,,,0.00,Wunderground v.1.15,2013-04-21 23:20:00,
2013-04-21 16:25:00,77.9,11.8,30.39,WNW,295,5.0,6.0,8,0.00,,,0.00,Wunderground v.1.15,2013-04-21 23:25:00,
2013-04-21 16:35:00,77.6,11.6,30.39,WNW,302,7.0,9.0,8,0.00,,,0.00,Wunderground v.1.15,2013-04-21 23:35:00,
2013-04-21 16:40:00,77.2,11.3,30.39,WNW,295,8.0,10.0,8,0.00,,,0.00,Wunderground v.1.15,2013-04-21 23:40:00,
2013-04-21 16:50:00,77.5,14.2,30.38,West,266,5.0,7.0,9,0.00,,,0.00,Wunderground v.1.15,2013-04-21 23:50:00,
2013-04-21 16:55:00,77.1,13.9,30.38,West,280,7.0,10.0,9,0.00,,,0.00,Wunderground v.1.15,2013-04-21 23:55:00,
2013-04-21 17:05:00,77.1,13.9,30.38,WNW,293,6.0,8.0,9,0.00,,,0.00,Wunderground v.1.15,2013-04-22 00:05:00,
2013-04-21 17:10:00,77.0,13.8,30.38,WNW,288,5.0,5.0,9,0.00,,,0.00,Wunderground v.1.15,2013-04-22 00:10:00,
2013-04-21 17:20:00,76.1,13.1,30.38,WNW,292,7.0,7.0,9,0.00,,,0.00,Wunderground v.1.15,2013-04-22 00:20:00,
2013-04-21 17:25:00,76.3,13.3,30.38,NW,305,6.0,7.0,9,0.00,,,0.00,Wunderground v.1.15,2013-04-22 00:25:00,
2013-04-21 17:35:00,76.0,15.4,30.37,NW,305,6.0,6.0,10,0.00,,,0.00,Wunderground v.1.15,2013-04-22 00:35:00,
2013-04-21 17:40:00,75.5,15.1,30.38,WNW,302,6.0,6.0,10,0.00,,,0.00,Wunderground v.1.15,2013-04-22 00:40:00,
2013-04-21 17:50:00,75.3,12.5,30.37,NW,314,6.0,6.0,9,0.00,,,0.00,Wunderground v.1.15,2013-04-22 00:50:00,
2013-04-21 17:55:00,75.0,14.7,30.38,WNW,290,7.0,7.0,10,0.00,,,0.00,Wunderground v.1.15,2013-04-22 00:55:00,
2013-04-21 18:05:00,74.9,12.2,30.37,WNW,297,5.0,7.0,9,0.00,,,0.00,Wunderground v.1.15,2013-04-22 01:05:00,
2013-04-21 18:10:00,74.5,14.3,30.37,WNW,283,5.0,5.0,10,0.00,,,0.00,Wunderground v.1.15,2013-04-22 01:10:00,
2013-04-21 18:20:00,73.8,13.8,30.37,WSW,256,5.0,5.0,10,0.00,,,0.00,Wunderground v.1.15,2013-04-22 01:20:00,
2013-04-21 18:25:00,73.6,13.6,30.37,WNW,283,5.0,7.0,10,0.00,,,0.00,Wunderground v.1.15,2013-04-22 01:25:00,
2013-04-21 18:35:00,72.5,12.8,30.37,West,279,7.0,7.0,10,0.00,,,0.00,Wunderground v.1.15,2013-04-22 01:35:00,
2013-04-21 18:40:00,72.0,12.4,30.37,WNW,294,6.0,6.0,10,0.00,,,0.00,Wunderground v.1.15,2013-04-22 01:40:00,
2013-04-21 18:50:00,71.0,11.6,30.37,NW,311,5.0,5.0,10,0.00,,,0.00,Wunderground v.1.15,2013-04-22 01:50:00,
2013-04-21 18:55:00,70.2,11.0,30.38,West,273,5.0,5.0,10,0.00,,,0.00,Wunderground v.1.15,2013-04-22 01:55:00,
2013-04-21 19:05:00,69.0,12.2,30.38,NW,305,5.0,5.0,11,0.00,,,0.00,Wunderground v.1.15,2013-04-22 02:05:00,
2013-04-21 19:10:00,68.3,11.7,30.38,WNW,300,4.0,4.0,11,0.00,,,0.00,Wunderground v.1.15,2013-04-22 02:10:00,
2013-04-21 19:20:00,67.1,12.7,30.38,WNW,288,3.0,3.0,12,0.00,,,0.00,Wunderground v.1.15,2013-04-22 02:20:00,
2013-04-21 19:25:00,66.7,12.4,30.39,West,280,3.0,3.0,12,0.00,,,0.00,Wunderground v.1.15,2013-04-22 02:25:00,
2013-04-21 19:35:00,66.0,11.9,30.39,West,280,4.0,6.0,12,0.00,,,0.00,Wunderground v.1.15,2013-04-22 02:35:00,
2013-04-21 19:40:00,65.4,13.2,30.39,WNW,288,3.0,4.0,13,0.00,,,0.00,Wunderground v.1.15,2013-04-22 02:40:00,
2013-04-21 19:50:00,64.3,12.3,30.40,WNW,290,3.0,3.0,13,0.00,,,0.00,Wunderground v.1.15,2013-04-22 02:50:00,
2013-04-21 19:55:00,63.8,13.6,30.40,WNW,285,2.0,3.0,14,0.00,,,0.00,Wunderground v.1.15,2013-04-22 02:55:00,
2013-04-21 20:05:00,62.7,12.7,30.41,WNW,283,2.0,2.0,14,0.00,,,0.00,Wunderground v.1.15,2013-04-22 03:05:00,
2013-04-21 20:10:00,62.1,13.8,30.41,WNW,302,2.0,2.0,15,0.00,,,0.00,Wunderground v.1.15,2013-04-22 03:10:00,
2013-04-21 20:20:00,60.7,12.7,30.41,WNW,290,1.0,2.0,15,0.00,,,0.00,Wunderground v.1.15,2013-04-22 03:20:00,
2013-04-21 20:25:00,60.1,13.7,30.41,WNW,284,1.0,2.0,16,0.00,,,0.00,Wunderground v.1.15,2013-04-22 03:25:00,
2013-04-21 20:35:00,59.4,13.1,30.42,WNW,295,1.0,2.0,16,0.00,,,0.00,Wunderground v.1.15,2013-04-22 03:35:00,
2013-04-21 20:40:00,59.3,13.0,30.42,NW,314,2.0,2.0,16,0.00,,,0.00,Wunderground v.1.15,2013-04-22 03:40:00,
2013-04-21 20:50:00,59.2,13.0,30.42,WNW,285,2.0,2.0,16,0.00,,,0.00,Wunderground v.1.15,2013-04-22 03:50:00,
2013-04-21 20:55:00,59.0,12.8,30.42,WNW,285,1.0,2.0,16,0.00,,,0.00,Wunderground v.1.15,2013-04-22 03:55:00,
2013-04-21 21:05:00,58.7,12.6,30.43,WNW,290,2.0,2.0,16,0.00,,,0.00,Wunderground v.1.15,2013-04-22 04:05:00,
2013-04-21 21:10:00,58.4,13.7,30.43,WNW,293,1.0,1.0,17,0.00,,,0.00,Wunderground v.1.15,2013-04-22 04:10:00,
2013-04-21 21:15:00,58.2,13.5,30.43,WNW,283,1.0,1.0,17,0.00,,,0.00,Wunderground v.1.15,2013-04-22 04:15:00,
2013-04-21 21:20:00,57.9,13.3,30.43,WNW,293,1.0,1.0,17,0.00,,,0.00,Wunderground v.1.15,2013-04-22 04:20:00,
2013-04-21 21:25:00,57.6,13.0,30.43,WNW,295,1.0,2.0,17,0.00,,,0.00,Wunderground v.1.15,2013-04-22 04:25:00,
2013-04-21 21:35:00,57.4,12.9,30.43,WNW,285,1.0,2.0,17,0.00,,,0.00,Wunderground v.1.15,2013-04-22 04:35:00,
2013-04-21 21:40:00,57.2,12.7,30.43,WNW,284,1.0,1.0,17,0.00,,,0.00,Wunderground v.1.15,2013-04-22 04:40:00,
2013-04-21 21:50:00,56.5,13.4,30.43,NE,37,0.0,1.0,18,0.00,,,0.00,Wunderground v.1.15,2013-04-22 04:50:00,
2013-04-21 21:55:00,55.7,12.8,30.43,SSE,152,0.0,1.0,18,0.00,,,0.00,Wunderground v.1.15,2013-04-22 04:55:00,
2013-04-21 22:05:00,55.2,13.6,30.43,SSE,167,0.0,0.0,19,0.00,,,0.00,Wunderground v.1.15,2013-04-22 05:05:00,
2013-04-21 22:10:00,55.2,12.4,30.43,SSE,153,0.0,0.0,18,0.00,,,0.00,Wunderground v.1.15,2013-04-22 05:10:00,
2013-04-21 22:20:00,55.0,13.4,30.43,East,82,0.0,2.0,19,0.00,,,0.00,Wunderground v.1.15,2013-04-22 05:20:00,
2013-04-21 22:25:00,55.3,13.7,30.43,SE,124,1.0,2.0,19,0.00,,,0.00,Wunderground v.1.15,2013-04-22 05:25:00,
2013-04-21 22:35:00,55.8,12.9,30.43,SE,127,1.0,1.0,18,0.00,,,0.00,Wunderground v.1.15,2013-04-22 05:35:00,
2013-04-21 22:40:00,55.6,12.7,30.43,SE,127,0.0,0.0,18,0.00,,,0.00,Wunderground v.1.15,2013-04-22 05:40:00,
2013-04-21 22:50:00,55.2,12.4,30.43,East,94,0.0,0.0,18,0.00,,,0.00,Wunderground v.1.15,2013-04-22 05:50:00,
2013-04-21 22:55:00,55.8,12.9,30.43,East,94,0.0,0.0,18,0.00,,,0.00,Wunderground v.1.15,2013-04-22 05:55:00,
2013-04-21 23:05:00,56.8,12.4,30.42,East,100,0.0,0.0,17,0.00,,,0.00,Wunderground v.1.15,2013-04-22 06:05:00,
2013-04-21 23:10:00,57.1,12.6,30.42,ESE,113,0.0,0.0,17,0.00,,,0.00,Wunderground v.1.15,2013-04-22 06:10:00,
2013-04-21 23:20:00,56.0,13.0,30.42,East,98,0.0,2.0,18,0.00,,,0.00,Wunderground v.1.15,2013-04-22 06:20:00,
2013-04-21 23:25:00,55.5,12.6,30.42,SE,134,1.0,2.0,18,0.00,,,0.00,Wunderground v.1.15,2013-04-22 06:25:00,
2013-04-21 23:35:00,53.3,13.2,30.42,ESE,103,2.0,3.0,20,0.00,,,0.00,Wunderground v.1.15,2013-04-22 06:35:00,
2013-04-21 23:40:00,52.8,12.8,30.42,SE,128,2.0,3.0,20,0.00,,,0.00,Wunderground v.1.15,2013-04-22 06:40:00,
2013-04-21 23:50:00,52.4,12.4,30.42,ESE,102,3.0,4.0,20,0.00,,,0.00,Wunderground v.1.15,2013-04-22 06:50:00,
2013-04-21 23:55:00,52.9,12.9,30.42,ESE,114,3.0,4.0,20,0.00,,,0.00,Wunderground v.1.15,2013-04-22 06:55:00,